ONEWEB-0010 (44058 NORAD) Tracking and Keplerian Element Data

This shows tracking and keplerian element data for the satellite.

Feedback or suggestion? Click here.




ElementValue
Catalog44058
NameONEWEB-0010
Epoch Orbit7994
Epoch Day298.25001157
Epoch Year2020
RAAN308.6442
Inclination87.9129
Eccentricity0.0002082
Argument of Perigee95.3083
Mean Anonmoly229.0795
Mean Motion13.21822928
Decay Rate-0.0002312
L11 44058U 19010B 20298.25001157 -.00023120 00000-0 -56157-1 0 9999
L22 44058 87.9129 308.6442 0002082 95.3083 229.0795 13.21822928 79947

Live tracking and technical data element details for ONEWEB-0010 (NORAD 44058). ONEWEB-0010 can be tracked NOW for your location showing map with azimuth and elevation plus other details from your city location.

Track the satellite on the map from your city or location and see movement details for azimuth, elevation, latitude, longitude, range, height, and movement on the map or in text.







IsCatalogInMostPopularTable: catalog: 44058, numindb: 241
Update: records affected: 1



GetName: 44058 ONEWEB-0010

Hit Count: updated at: Sat, 24 Oct 2020 23:51:56 GMT